Location: Unspecified
(47.5840°N, 122.3000°W)
Time: 21:47:28
(UTC+00:00)

Cosmos 2322 Rocket - Pass Details

Date: 09 December 2025
Orbit: 831 x 850 km, 71.0° (Epoch: 20 January)

Event Time Altitude Azimuth Distance (km) Brightness Sun altitude
Exits shadow 13:16:29 19° 350° (N) 1,925 3.9 -24.1°
Maximum altitude 13:20:19 46° 55° (NE) 1,137 3.1 -23.5°
Drops below altitude 10° 13:25:45 10° 128° (SE) 2,465 5.5 -22.6°
Sets 13:28:17 0° 134° (SE) 3,393 6.2 -22.2°
